RH
33 33 35 36 37 35 33 32 30 28 28 31 30 29 29 26 25 25 25 26 28 28 28 32 34 36 39 40 40 42 39 40 42 41 43 39 37 38 34 30 27 27 23 21 19 18 18 18 21 25 28 30 30 28 26 24 26 29 30 32 32 30 28 31 30 27 26 28 29 30 32 35 38 39 38 35 30 24 22 21 24 29 37 41 40 41 39 36 32 31 30 28 28 28 24 21 19
31 31 32 32 33 33 35 36 35 32 30 32 30 29 28 28 28 26 26 26 28 28 27 31 32 33 35 35 35 36 39 42 41 41 40 37 40 39 33 29 26 27 24 22 21 20 18 18 21 23 27 29 30 29 26 24 26 28 30 32 32 31 29 30 31 29 27 27 29 30 31 34 37 39 38 36 32 26 23 23 27 31 35 38 39 40 37 34 32 31 30 29 27 24 21 19 18
30 30 30 30 30 30 31 34 35 34 33 33 31 28 28 29 29 27 27 26 27 29 28 29 31 31 30 32 35 34 37 42 40 41 40 39 44 40 32 28 25 26 25 24 23 25 23 18 20 22 25 28 29 28 25 25 26 28 29 31 32 32 30 29 32 31 28 27 28 30 32 34 37 39 38 37 34 28 23 24 29 32 34 36 38 38 36 34 32 30 29 27 24 21 20 19 17
29 30 30 29 29 29 30 31 33 34 33 33 32 30 29 29 29 29 28 26 27 28 28 28 30 31 28 31 34 33 35 38 38 39 42 42 45 40 31 27 25 25 25 26 24 31 30 18 19 21 25 28 29 28 25 25 26 27 28 30 31 33 33 30 31 32 30 28 28 31 32 34 36 38 38 37 34 29 25 25 30 34 34 35 35 36 36 34 30 28 27 25 23 21 20 18 18
29 29 30 29 29 29 29 30 31 32 32 32 32 31 30 29 29 30 29 27 27 26 27 26 27 29 28 31 31 34 37 38 38 39 43 43 44 40 33 28 25 24 25 27 25 33 32 18 19 21 24 28 30 29 25 25 26 27 28 30 32 34 35 32 31 33 32 30 29 31 33 34 36 37 38 37 34 30 27 26 29 33 35 34 34 34 35 32 29 26 25 25 24 22 21 20 21
30 30 30 29 29 29 29 29 29 30 30 29 30 31 30 30 30 30 29 28 27 27 28 26 25 25 28 33 32 34 36 37 40 40 44 44 42 39 33 29 27 24 25 27 25 33 30 16 19 21 23 27 30 30 26 25 26 27 28 29 34 36 37 33 31 34 35 33 32 33 34 34 36 37 38 40 37 32 29 27 27 31 33 33 32 32 32 30 28 26 26 25 24 22 21 22 23
31 31 30 30 30 29 29 29 28 28 29 29 28 30 29 28 29 30 30 29 27 27 27 26 26 24 29 33 32 36 35 36 41 41 44 43 41 38 34 30 29 25 24 25 26 33 28 17 18 19 22 27 30 30 27 26 27 28 29 31 35 38 39 37 33 33 36 35 35 34 33 34 35 37 37 39 36 30 29 27 26 29 33 32 32 30 29 28 27 26 27 25 23 23 23 24 26
32 32 31 30 30 29 28 29 28 27 28 28 27 28 28 26 27 29 29 29 27 27 27 27 27 26 30 30 30 38 36 37 41 41 42 42 41 39 34 33 31 27 26 26 28 31 25 18 18 18 21 25 29 30 28 27 27 29 31 34 37 39 41 40 36 34 36 37 36 34 33 32 34 37 37 36 31 28 27 27 26 29 33 34 33 30 28 26 25 26 28 26 24 24 25 26 28
32 32 31 30 31 30 29 28 28 27 26 26 27 26 27 27 25 26 27 28 28 27 26 26 26 26 29 27 30 39 37 37 39 40 42 42 42 40 35 35 33 28 27 27 28 29 24 21 19 18 21 24 28 29 28 28 29 31 34 36 37 39 41 41 38 35 37 39 37 35 34 33 33 37 36 32 27 25 27 28 26 28 32 34 33 32 29 26 26 27 28 26 27 27 27 28 30
31 31 31 31 30 31 29 28 27 27 26 24 25 26 27 27 25 24 24 26 26 27 26 25 26 26 26 25 31 39 37 35 39 42 43 42 42 38 34 35 34 28 25 25 26 28 25 23 22 21 21 23 27 28 27 28 30 33 36 37 36 39 41 41 39 36 37 40 38 36 36 33 32 35 31 27 24 24 26 28 27 27 30 33 33 33 31 28 27 28 27 27 28 30 30 30 30
30 30 30 30 30 31 29 28 27 26 26 24 24 25 26 27 26 24 23 23 23 24 25 25 26 25 25 26 33 37 34 36 43 45 45 45 43 36 32 34 33 26 23 22 23 30 28 25 26 24 22 23 25 27 27 27 30 33 36 36 36 38 39 40 39 37 37 39 39 37 36 33 30 30 26 24 23 23 25 28 27 27 29 32 34 33 33 30 30 31 30 29 30 31 32 31 30
29 28 28 29 29 29 29 27 27 26 26 24 24 24 25 26 26 25 23 22 22 22 22 22 23 23 23 26 35 36 32 39 47 47 47 47 43 35 32 33 31 25 22 21 23 35 35 28 30 29 27 26 25 27 28 28 29 32 35 35 35 38 39 40 40 38 38 39 39 37 35 32 27 26 24 23 23 23 25 27 28 27 28 31 33 34 33 31 31 33 33 32 32 33 33 31 31
27 27 27 28 27 28 28 27 26 27 26 25 24 24 24 25 27 27 24 23 22 21 22 22 22 22 21 26 34 34 32 41 46 46 46 46 43 36 32 31 30 25 21 21 26 38 41 39 40 38 35 32 28 27 27 28 29 31 35 35 36 39 40 41 40 38 38 39 39 37 35 31 27 25 23 23 23 23 25 26 27 28 28 30 32 33 32 32 31 33 34 35 35 36 34 33 32
25 26 27 26 26 26 26 26 26 26 26 26 25 24 24 25 26 26 26 24 22 23 24 24 23 21 24 26 31 33 35 39 42 44 45 44 41 34 31 30 28 25 22 25 32 39 44 48 50 48 46 44 39 33 28 27 29 32 34 34 37 40 40 41 41 38 38 38 39 38 36 31 27 24 22 23 23 24 25 25 27 28 28 29 30 32 32 31 30 31 34 36 38 38 37 34 33
25 26 27 25 26 26 25 25 25 25 24 25 25 24 23 24 24 25 25 24 25 26 25 26 24 23 27 25 28 33 31 33 37 42 43 42 39 34 32 29 26 26 25 31 37 40 45 49 51 53 53 54 50 43 36 31 30 33 35 36 39 40 42 42 41 39 37 38 39 38 35 31 26 22 20 22 24 24 25 24 26 27 29 29 29 32 32 32 31 32 34 36 37 37 37 35 33
25 26 26 26 26 25 25 25 24 24 24 23 24 23 22 22 22 23 24 23 26 27 25 28 26 24 28 26 27 31 27 27 35 40 42 42 40 36 33 30 30 31 31 35 40 41 44 47 49 52 55 57 56 50 43 35 32 35 37 38 40 42 43 43 40 38 37 38 39 37 33 29 24 20 19 23 24 24 25 24 25 27 28 30 30 31 31 32 32 33 34 35 35 34 34 33 33
25 26 26 25 25 25 25 25 24 23 22 23 22 21 21 21 21 23 25 22 25 28 27 28 26 25 28 29 31 31 27 27 33 39 41 40 39 37 35 34 36 36 37 38 40 42 43 46 48 50 53 56 58 55 45 38 34 36 39 39 40 43 43 43 39 36 37 38 37 34 31 28 22 19 19 23 25 25 26 24 25 26 27 29 30 31 30 30 30 31 33 34 33 33 31 30 30
25 25 25 25 24 25 24 25 25 24 23 22 22 20 20 21 22 24 25 25 25 26 28 28 27 27 28 31 33 31 28 28 32 39 40 39 39 37 37 38 39 39 40 42 43 44 43 47 48 48 50 53 60 56 44 38 36 37 40 41 41 43 44 42 38 37 38 36 33 31 30 28 21 19 20 23 25 26 26 26 25 25 26 28 29 30 29 28 29 29 30 30 30 27 26 28 29
24 24 25 24 23 24 23 24 25 24 22 22 22 20 20 20 22 25 25 27 28 25 27 28 27 29 29 31 34 30 29 29 33 39 40 39 38 36 37 39 40 41 43 44 45 47 47 48 48 47 50 55 59 51 39 36 36 38 42 42 41 43 43 41 39 38 41 39 34 31 29 27 22 19 20 23 26 26 27 27 26 26 25 26 29 29 28 28 28 28 27 25 23 23 25 28 29
21 23 24 22 22 23 23 24 24 24 22 21 22 21 21 20 21 27 24 23 28 26 26 28 25 26 32 33 35 32 30 32 36 41 42 39 37 37 38 38 41 43 45 45 47 50 50 50 47 47 52 57 56 45 38 37 35 39 43 43 43 45 44 42 41 40 44 42 33 30 29 29 27 21 20 25 29 29 29 28 27 27 26 27 28 28 29 28 27 27 24 21 24 28 32 31 31
18 20 20 19 21 23 23 24 24 23 22 21 22 21 21 20 20 25 24 20 23 25 24 26 22 24 32 34 34 32 32 38 41 42 42 40 37 37 37 37 41 42 43 45 49 53 52 51 49 50 55 58 55 46 40 39 39 42 46 47 46 48 47 45 43 41 44 39 32 35 33 32 35 30 25 28 32 32 31 31 31 29 27 28 27 30 32 29 30 33 28 27 31 34 34 31 31
16 16 15 17 20 21 22 24 23 22 22 22 21 22 21 21 20 21 23 20 21 24 26 25 20 24 30 30 31 32 35 42 44 44 44 40 38 38 37 38 41 42 44 44 47 52 52 51 50 52 58 58 53 47 44 42 43 44 46 48 48 50 52 50 45 43 45 39 37 41 38 35 38 34 28 29 33 37 38 39 38 32 32 30 30 38 38 33 35 36 34 33 34 33 33 33 32
13 14 13 14 17 19 21 22 21 21 21 21 21 21 21 21 21 21 21 20 22 26 27 24 23 27 30 29 30 31 37 44 45 45 44 42 40 39 39 39 41 43 45 42 44 49 51 51 50 52 56 54 51 49 45 42 42 44 46 47 51 55 57 55 49 46 47 41 39 41 39 38 38 36 34 35 38 42 42 45 44 39 41 38 38 47 43 38 39 38 36 37 37 39 39 39 39
13 12 12 13 15 17 18 19 18 18 20 20 21 20 20 20 21 23 23 21 25 27 25 26 27 28 31 32 32 32 38 45 46 45 45 44 41 40 40 40 41 44 44 42 44 47 50 51 49 51 52 51 52 48 43 41 41 43 44 46 54 59 58 59 54 50 50 44 40 41 41 39 38 39 42 46 47 47 44 45 46 45 48 47 46 53 52 48 46 43 42 42 43 46 44 42 41
13 12 12 14 15 15 14 16 16 16 18 19 19 18 19 19 20 25 24 22 26 26 26 30 28 25 29 34 33 35 41 45 46 45 45 43 40 40 40 40 41 44 44 43 44 46 51 49 47 49 50 52 50 43 40 41 41 42 44 50 57 59 59 60 56 53 54 47 43 44 43 40 40 43 47 52 53 51 49 50 52 51 52 53 53 58 59 56 53 48 46 45 47 46 45 43 39
14 12 13 15 15 13 12 14 14 14 15 16 17 17 18 17 19 22 23 26 28 26 29 32 28 26 31 36 37 39 43 45 43 43 44 42 40 40 40 39 41 44 43 43 42 44 48 46 46 49 49 55 48 38 41 41 41 43 47 54 58 59 60 59 56 57 57 51 47 44 42 41 41 47 52 55 56 54 53 56 59 58 56 55 57 60 60 57 54 50 47 48 48 46 45 41 39
16 14 14 16 16 14 12 13 13 12 12 14 14 15 16 16 17 17 19 26 26 25 31 32 29 31 34 37 39 41 43 43 41 41 42 41 39 39 39 39 41 44 40 40 40 40 44 41 42 49 49 54 49 39 42 42 42 45 48 55 58 60 60 58 57 59 59 55 50 44 42 41 42 50 56 58 58 57 58 62 64 62 59 56 57 60 58 54 54 51 47 47 47 44 43 42 42
16 17 16 17 17 16 14 12 13 12 11 12 12 13 15 15 14 14 19 25 23 22 29 32 32 33 35 37 39 41 41 40 38 37 38 38 38 37 37 38 41 41 35 37 40 39 46 41 37 48 51 52 50 42 41 42 44 46 47 53 57 59 60 57 56 59 60 57 52 47 45 44 45 54 60 60 60 61 64 66 66 64 60 57 56 57 54 52 54 52 48 47 45 44 46 45 44
16 18 17 18 16 16 15 14 13 13 13 11 11 12 13 12 11 12 19 24 20 20 25 30 32 31 33 36 37 40 39 38 37 35 36 35 34 34 36 40 40 37 36 39 41 42 50 46 39 49 55 54 52 47 45 46 47 46 47 50 53 57 57 55 55 59 61 56 52 50 50 47 49 58 62 62 62 65 68 68 68 66 60 56 54 53 53 53 55 56 55 53 50 47 48 47 43
16 17 17 18 18 16 15 15 14 13 14 12 12 12 10 10 10 11 16 19 19 20 21 24 29 30 31 34 37 38 36 37 36 34 34 33 32 32 37 42 39 36 39 42 43 45 51 50 44 47 55 58 55 51 50 48 47 45 47 50 53 56 57 56 58 62 61 58 58 55 54 53 53 60 63 61 62 67 69 68 69 67 61 57 55 55 55 56 58 60 61 61 56 49 47 45 41
17 17 16 16 17 16 15 15 15 14 14 13 13 12 9 9 10 11 13 16 19 19 19 21 26 28 29 33 36 36 35 35 35 33 32 31 32 33 37 41 39 38 41 42 45 48 51 50 44 43 50 57 54 52 51 48 46 45 49 54 59 62 62 63 65 65 64 66 66 60 58 59 58 61 63 61 62 66 70 70 70 68 63 60 59 58 58 59 60 61 60 58 56 51 46 42 39
19 18 16 14 15 16 16 15 14 15 14 13 13 12 10 8 9 12 14 16 18 16 16 19 24 27 28 32 35 35 34 33 34 33 32 32 33 35 38 40 40 41 41 43 46 49 52 49 43 41 44 50 51 50 49 46 46 51 57 63 66 68 68 69 70 68 69 72 70 65 62 62 64 64 62 61 63 68 72 74 73 69 66 64 62 61 61 61 61 62 57 50 48 47 46 42 39
21 18 16 14 14 14 17 16 14 15 15 14 13 11 11 10 10 16 17 16 17 14 13 16 21 25 28 31 33 33 33 32 32 33 34 34 34 36 40 41 41 41 41 43 45 48 52 49 44 41 41 46 49 50 51 50 53 60 66 70 72 73 72 73 73 70 73 74 72 70 67 65 68 66 61 61 67 74 76 77 75 70 68 68 66 65 65 63 63 61 53 44 40 44 48 44 38
21 18 16 15 13 14 16 17 14 15 16 15 13 11 12 12 14 20 19 16 16 12 12 15 18 24 28 30 31 31 31 31 31 32 35 35 36 37 40 42 42 41 41 42 44 47 49 48 46 44 43 49 53 55 58 59 61 66 69 71 74 76 77 75 74 74 78 79 75 71 68 70 72 68 65 68 74 80 81 79 75 71 71 70 69 69 68 66 64 57 47 42 40 42 44 38 34
21 18 18 17 16 15 16 18 15 14 15 15 14 13 13 14 18 22 19 16 15 11 11 14 16 22 27 29 28 29 30 32 31 32 35 36 36 38 39 42 42 42 42 42 44 46 48 50 50 47 46 51 56 60 63 64 65 67 67 69 73 76 78 77 76 78 82 83 76 70 69 73 75 73 74 78 81 84 84 80 76 74 73 74 73 73 72 69 61 49 43 47 47 40 35 31 30
24 22 19 18 19 18 16 18 17 15 15 15 14 14 13 14 20 23 19 17 15 12 12 14 17 21 27 28 27 28 30 31 31 32 35 36 37 38 39 41 42 42 44 44 45 47 49 52 52 50 50 54 59 62 64 66 67 65 65 67 69 71 72 75 79 80 83 82 73 70 72 77 78 79 83 85 85 87 85 80 77 75 76 77 76 76 75 66 53 45 45 49 51 43 33 29 30
29 27 25 19 20 21 17 17 17 15 15 15 14 14 14 14 20 25 20 17 16 13 13 15 18 22 26 28 27 28 30 30 31 33 35 36 37 37 38 40 41 42 44 45 47 49 51 52 52 52 53 57 62 65 64 63 64 64 65 67 68 68 69 75 81 83 84 80 73 72 75 79 81 83 88 88 87 87 83 79 76 74 77 78 77 75 67 56 48 47 49 47 46 41 33 29 28
29 30 30 23 21 21 17 16 16 15 15 15 14 13 14 14 17 25 24 17 16 14 14 16 19 21 24 26 27 29 30 30 31 34 35 36 38 38 39 39 40 41 44 46 48 51 52 52 53 53 53 57 61 65 64 61 64 65 65 68 71 72 74 79 83 86 86 79 76 77 78 81 84 86 89 90 89 87 83 80 77 76 77 77 73 66 55 49 48 49 51 48 40 32 29 28 27
31 31 31 27 22 19 18 16 15 16 16 16 15 13 13 13 14 23 26 18 16 16 14 16 17 19 22 25 28 30 29 29 32 36 36 37 39 39 39 40 40 43 46 48 50 51 52 51 53 53 52 55 57 61 64 63 66 66 66 69 73 77 80 82 84 86 84 79 78 79 79 81 86 87 88 90 89 86 84 83 80 79 79 75 66 56 49 49 50 47 43 40 40 33 27 29 29
33 30 30 28 23 20 19 18 16 17 17 16 18 16 13 14 13 19 25 21 17 17 15 16 17 19 22 25 28 31 29 29 32 36 37 38 40 39 39 39 41 43 46 49 50 49 49 50 52 51 50 51 54 60 63 62 64 67 69 72 77 82 83 83 84 84 82 80 79 81 83 85 88 90 89 90 89 86 86 84 83 82 78 67 56 51 51 51 47 41 33 30 38 38 30 29 31
32 29 29 28 26 23 21 20 18 18 17 17 20 20 17 15 13 16 24 25 20 17 17 18 18 19 22 24 28 31 30 29 32 35 37 38 40 40 39 40 40 44 47 49 48 47 49 52 52 50 51 53 56 62 64 64 66 69 70 73 79 83 83 82 84 84 82 81 82 84 88 87 88 89 86 88 91 89 88 86 83 78 67 56 51 52 52 48 39 33 29 28 32 34 31 32 33
30 29 29 29 28 24 22 22 21 20 19 18 20 21 18 14 14 17 23 26 23 20 18 18 19 20 22 25 27 29 30 28 30 33 36 38 40 40 40 39 40 45 50 49 48 50 53 55 56 56 58 60 62 65 67 66 68 69 69 72 78 81 81 82 84 86 84 83 86 89 89 87 85 84 84 89 91 88 85 82 75 67 57 52 53 52 46 38 33 30 30 30 30 31 33 33 31
32 30 29 29 30 25 23 22 22 21 20 19 17 17 17 15 16 20 24 28 25 21 20 19 18 19 21 24 26 28 28 28 29 31 34 37 38 40 40 40 42 50 56 54 53 58 58 56 60 64 66 68 69 69 66 65 67 70 71 73 76 78 78 79 82 86 86 85 88 90 92 89 87 86 87 89 87 83 79 73 65 60 56 54 52 46 37 32 31 31 30 31 32 34 33 31 29
32 31 29 28 28 25 24 24 22 22 20 20 18 15 17 18 17 20 26 30 26 22 23 20 17 19 20 23 25 26 27 27 28 29 33 36 37 40 41 41 46 53 58 55 54 62 66 62 64 67 68 68 70 69 64 65 68 71 72 74 77 78 78 79 83 85 86 89 91 93 94 93 90 89 90 89 84 82 77 67 61 57 55 53 48 40 35 33 32 31 32 33 34 34 32 29 28
32 32 31 28 27 25 25 25 23 22 22 24 21 16 17 19 21 24 27 30 27 23 24 20 18 20 20 21 23 24 25 25 26 29 33 36 36 40 43 43 46 51 56 56 55 61 68 71 70 68 67 66 69 69 67 68 70 70 72 75 78 81 83 84 86 87 89 92 93 94 96 93 91 91 90 87 83 80 74 64 60 58 55 50 43 37 35 34 33 33 33 34 34 32 31 30 28
33 34 33 29 27 26 26 26 25 24 26 28 26 19 15 16 24 29 28 27 25 25 25 20 18 21 20 21 22 23 24 24 25 29 31 33 37 41 44 44 47 51 56 59 60 62 65 72 74 71 71 70 70 73 72 71 71 72 75 76 79 83 83 83 86 89 92 93 94 95 95 94 93 91 89 86 82 77 70 63 60 57 52 46 40 37 36 34 33 34 34 35 34 33 31 30 28
36 34 34 32 29 29 28 27 25 25 27 27 24 21 16 16 22 30 30 24 21 24 27 20 17 20 19 20 22 23 23 23 25 29 31 33 38 42 43 46 48 50 54 56 59 62 59 64 71 72 74 72 70 72 75 75 76 78 79 76 77 80 80 80 83 88 92 94 96 96 96 94 93 91 89 84 78 72 66 62 60 54 47 43 40 37 35 35 35 35 35 35 34 32 30 27 25
36 35 33 34 33 32 31 30 29 28 27 24 21 22 21 17 18 25 30 25 20 22 24 18 15 17 19 21 23 22 22 24 27 30 32 35 38 41 43 47 48 47 51 52 55 58 57 64 72 71 70 71 72 75 76 78 81 83 79 74 73 76 78 80 83 88 94 96 96 96 95 94 92 91 86 77 70 66 63 60 56 49 44 41 39 36 36 36 36 36 36 35 33 30 27 24 22
37 36 35 36 36 36 35 32 31 29 26 22 19 23 25 17 14 23 32 26 18 20 21 16 15 17 19 21 22 23 23 25 27 30 34 36 38 41 42 45 45 45 48 50 52 56 58 66 76 74 68 70 76 81 81 81 81 77 71 69 72 76 79 82 86 91 96 97 97 96 94 93 90 85 78 70 66 63 59 54 49 45 42 40 38 38 39 38 38 37 36 33 30 26 23 22 21
35 34 35 35 34 38 38 31 28 27 25 22 19 24 28 20 13 22 34 28 15 16 20 16 16 18 19 21 22 23 23 25 28 29 33 36 36 39 41 42 43 44 47 49 53 57 57 60 69 75 72 71 77 83 83 82 77 67 62 65 71 76 82 87 89 95 97 97 97 95 92 90 85 78 71 67 65 59 53 50 47 44 41 40 41 41 40 39 38 36 33 29 26 23 22 22 21
32 29 31 33 31 33 34 29 27 26 24 24 23 28 28 22 17 19 26 27 17 14 15 15 16 19 20 22 23 24 23 25 28 30 32 35 36 39 41 41 42 44 47 50 53 56 56 58 63 68 70 71 75 80 80 76 69 63 61 66 70 74 81 87 91 95 96 96 96 92 90 87 80 73 69 66 63 56 51 49 46 43 43 44 44 42 40 38 35 32 28 26 23 23 23 22 20
34 33 33 35 32 29 30 30 28 25 25 26 27 28 25 23 25 22 20 23 20 16 14 14 16 19 21 23 24 24 24 25 28 30 31 34 37 38 39 40 42 44 47 50 53 54 57 59 61 64 67 71 75 77 77 70 64 63 64 68 70 71 78 86 91 94 95 95 93 89 87 83 76 71 67 64 60 54 49 47 46 46 47 46 43 40 38 35 31 28 26 24 24 24 22 20 19
37 35 33 34 34 31 31 32 30 27 29 29 28 28 26 26 29 27 21 20 20 20 19 17 18 21 23 24 25 25 25 26 27 30 32 35 37 37 39 40 42 44 47 50 53 55 58 60 62 64 67 69 73 75 73 67 63 64 66 69 72 74 81 89 94 96 95 92 89 86 83 77 71 66 62 61 58 52 50 50 49 49 48 44 40 37 34 31 28 26 25 25 25 24 21 20 21
37 33 31 34 37 34 31 30 30 30 30 29 28 27 25 25 27 27 22 18 19 20 20 20 20 23 25 24 25 25 25 27 27 28 31 33 35 37 39 41 42 46 48 52 55 57 59 60 63 67 69 69 71 71 69 66 63 62 65 71 77 81 88 93 94 95 93 89 85 82 77 73 68 63 60 60 57 53 53 53 51 49 45 40 37 34 31 28 26 26 26 26 25 23 21 23 24
40 34 32 35 38 34 32 32 33 31 28 29 30 26 21 21 24 26 21 17 19 20 20 21 21 23 24 23 24 25 25 27 27 28 30 32 35 38 41 43 44 46 49 53 57 58 59 62 65 70 71 69 67 65 66 67 64 63 66 71 75 82 89 92 91 91 89 84 80 77 73 69 64 60 60 60 56 54 54 53 50 46 41 37 34 31 29 28 27 27 28 27 25 23 24 26 25
42 37 34 34 35 32 30 31 30 27 25 27 28 25 20 19 23 25 20 16 19 20 20 20 20 21 22 22 24 25 25 27 27 28 30 33 36 39 41 44 45 47 50 54 57 58 61 63 66 69 70 68 65 62 63 65 66 70 75 75 76 82 87 86 85 87 84 78 75 72 68 64 60 60 62 60 56 55 53 50 46 42 38 36 32 30 29 28 27 28 28 26 25 26 28 27 22
39 37 34 33 33 31 29 29 28 25 23 25 28 27 22 19 23 26 22 18 17 17 17 18 18 20 22 23 24 25 25 27 27 29 31 34 38 40 42 45 46 48 51 54 56 57 61 64 67 69 68 65 63 62 61 63 71 78 79 77 78 81 81 80 81 83 79 73 69 65 62 61 60 63 64 59 55 53 51 47 43 41 38 35 31 30 29 28 28 28 27 26 27 29 28 24 19
37 34 32 32 31 30 31 30 28 25 23 24 27 26 22 19 22 25 23 18 15 15 15 15 16 18 21 23 25 26 26 27 28 30 32 36 39 42 44 45 47 49 51 54 54 56 61 67 70 70 67 63 60 61 63 68 76 79 77 75 75 76 78 79 81 79 74 68 63 59 59 61 62 64 62 56 53 51 48 44 42 40 38 34 32 31 30 29 29 28 26 27 30 30 25 20 18